Home   Weather   Curitiba   Past weeks
Flag for Brazil

Past Weather in Curitiba, Paraná, Brazil — Yesterday and Last 2 Weeks

Now
64 °F

Low clouds.


Feels Like: 64 °F
Forecast: N/A
Wind: 9 mph from Northeast

Location: Curitiba Aeroporto

Current Time: Oct 17, 2019 at 8:49:45 pm

Latest Report: Oct 17, 2019 at 8:00 pm


Visibility: N/A

Pressure: 30.09 "Hg (27.03 "Hg at 915m altitude)

Humidity: 94%

Dew Point: 63 °F

Location of CuritibaLocation

Past Weather in Curitiba — Graph

°F

Curitiba Temperature Yesterday

Maximum temperature yesterday: 70 °F (at 2:00 pm)
Minimum temperature yesterday: 55 °F (at 2:00 am)
Average temperature yesterday: 62 °F

High & Low Weather Summary for the Past Weeks

 TemperatureHumidityPressure
High90 °F (Oct 12, 3:00 pm)100% (Oct 4, 10:00 pm)30.27 "Hg (Oct 4, 10:00 pm)
Low50 °F (Oct 10, 5:00 am)27% (Oct 13, 5:00 pm)29.83 "Hg (Oct 14, 2:00 am)
Average65 °F82%30.12 "Hg
* Reported Oct 2 7:00 pm — Oct 17 7:00 pm, Curitiba. Weather by CustomWeather, © 2019

Note: Actual official high and low records may vary slightly from our data, if they occured in-between our weather recording intervals... More about our weather records

Advertising

Curitiba Weather History for the Previous 24 Hours

Scroll right to see more
 ConditionsComfort  
Time TempWeatherWind HumidityBarometerVisibility
7:00 pm
Thu, Oct 17
66 °FPassing clouds.6 mph94%30.09 "HgN/A
6:00 pm66 °FPartly sunny.12 mph88%30.07 "HgN/A
5:00 pm70 °FPartly sunny.12 mph78%30.09 "HgN/A
4:00 pm72 °FPartly sunny.12 mph73%30.09 "HgN/A
3:00 pm73 °FPartly sunny.7 mph69%30.09 "HgN/A
2:00 pm73 °FPartly sunny.9 mph69%30.12 "HgN/A
1:00 pm72 °FPartly sunny.8 mph69%30.15 "HgN/A
11:00 am68 °FMostly cloudy.10 mph78%30.18 "HgN/A
10:00 am66 °FOvercast.10 mph83%30.21 "HgN/A
9:00 am66 °FOvercast.16 mph78%30.15 "HgN/A
8:00 am64 °FOvercast.7 mph88%30.18 "HgN/A
7:00 am63 °FLow clouds.2 mph94%30.18 "Hg5 mi
6:00 am63 °FLow clouds.5 mph88%30.15 "Hg4 mi
5:00 am63 °FLow clouds.7 mph88%30.15 "HgN/A
4:00 am63 °FMostly cloudy.7 mph94%30.12 "HgN/A
3:00 am63 °FLow clouds.5 mph94%30.15 "HgN/A
2:00 am63 °FMostly cloudy.8 mph94%30.15 "HgN/A
1:00 am63 °FMostly cloudy.6 mph94%30.15 "HgN/A
12:00 am63 °FPassing clouds.6 mph94%30.18 "HgN/A
11:00 pm
Wed, Oct 16
63 °FMostly cloudy.7 mph94%30.21 "HgN/A
10:00 pm63 °FLow clouds.7 mph94%30.21 "HgN/A
9:00 pm63 °FLow clouds.9 mph94%30.21 "HgN/A
8:00 pm63 °FLow clouds.9 mph94%30.21 "HgN/A
Weather by CustomWeather, © 2019

See weather overview